Fort Worth, TX

5:36 AM CDT on May 30, 2017 (GMT -0500)
Fort Worth Meacham International

Weather History for KFTW - May, 2013

Change the Weather History Date:

Friday, May 24, 2013

  Actual Average Record
Temperature  
Mean Temperature 74 °F -  
Max Temperature 82 °F 85 °F 98 °F (2000)
Min Temperature 66 °F 64 °F 55 °F (2017)
Cooling Degree Days 9    
Growing Degree Days 24 (Base 50)    
Moisture  
Dew Point 70 °F    
Average Humidity 87    
Maximum Humidity 100    
Minimum Humidity 65    
Precipitation  
Precipitation 0.22 in - - ()
Sea Level Pressure  
Sea Level Pressure 30.08 in    
Wind  
Wind Speed 8 mph (SE)    
Max Wind Speed 24 mph    
Max Gust Speed 36 mph    
Visibility 8 miles    
Events Rain , Thunderstorm    
Averages and records for this station are not official NWS values.
T = Trace of Precipitation, MM = Missing Value Source: NWS Daily Summary

Daily Weather History Graph

Daily Weather History Graph

Search for Another Location

Airport or City:

Trip Planner

Search our weather history database for the weather conditions in past years. The results will help you decide how hot, cold, wet, or windy it might be!

Date:

Astronomy

May. 24, 2013 Rise Set
Actual Time 6:25 AM CDT 8:27 PM CDT
Civil Twilight 5:57 AM CDT 8:55 PM CDT
Nautical Twilight 5:23 AM CDT 9:29 PM CDT
Astronomical Twilight 4:47 AM CDT 10:05 PM CDT
Moon 8:12 PM CDT (5/24) 5:55 AM CDT (5/24)
Length of Visible Light 14h 58m
Length of Day
14h 02m
Full, 100% of the Moon is Illuminated
May 24
Full
May 24
Full
May 31
Last Quarter
Jun 8
New
Jun 16
First Quarter

Hourly Weather History & Observations

Time (CDT) Temp. Heat Index Dew Point Humidity Pressure Visibility Wind Dir Wind Speed Gust Speed Precip Events Conditions
12:53 AM 78.1 °F - 69.1 °F 74% 29.99 in 9.0 mi East 6.9 mph - N/A   Clear
1:53 AM 75.9 °F - 70.0 °F 82% 29.99 in 9.0 mi East 4.6 mph - N/A   Clear
2:53 AM 75.0 °F - 70.0 °F 84% 29.99 in 10.0 mi ESE 5.8 mph - N/A   Clear
3:53 AM 73.9 °F - 70.0 °F 87% 29.99 in 9.0 mi ESE 6.9 mph - N/A   Clear
4:53 AM 73.9 °F - 71.1 °F 91% 30.00 in 8.0 mi ESE 5.8 mph - N/A   Clear
5:53 AM 73.0 °F - 71.1 °F 93% 30.01 in 8.0 mi ESE 5.8 mph - N/A   Clear
6:53 AM 73.0 °F - 72.0 °F 96% 30.02 in 6.0 mi ESE 5.8 mph - N/A   Clear
7:53 AM 75.0 °F - 73.0 °F 94% 30.08 in 6.0 mi ESE 5.8 mph - N/A   Clear
8:09 AM 75.2 °F - 73.4 °F 94% 30.11 in 6.0 mi East 4.6 mph - N/A   Mostly Cloudy
8:35 AM 75.2 °F - 73.4 °F 94% 30.10 in 6.0 mi East 6.9 mph - N/A   Mostly Cloudy
8:46 AM 75.2 °F - 73.4 °F 94% 30.10 in 7.0 mi ESE 4.6 mph - N/A   Mostly Cloudy
8:53 AM 77.0 °F - 73.0 °F 88% 30.08 in 7.0 mi ESE 6.9 mph - N/A   Scattered Clouds
9:42 AM 78.8 °F - 73.4 °F 83% 30.11 in 9.0 mi ESE 8.1 mph - N/A   Mostly Cloudy
9:53 AM 79.0 °F - 73.0 °F 82% 30.09 in 10.0 mi SE 8.1 mph - N/A   Scattered Clouds
10:22 AM 78.8 °F - 73.4 °F 83% 30.12 in 10.0 mi SE 11.5 mph - N/A   Mostly Cloudy
10:53 AM 80.1 °F 83.8 °F 72.0 °F 76% 30.10 in 10.0 mi SE 11.5 mph - N/A   Mostly Cloudy
11:53 AM 82.9 °F 87.0 °F 70.0 °F 65% 30.10 in 10.0 mi SE 12.7 mph 18.4 mph N/A   Partly Cloudy
12:26 PM 82.4 °F 86.3 °F 69.8 °F 66% 30.13 in 10.0 mi South 12.7 mph - N/A Thunderstorm Mostly Cloudy
12:53 PM 75.9 °F - 71.1 °F 85% 30.12 in 1.8 mi SE 11.5 mph 23.0 mph 0.01 in Rain , Thunderstorm Heavy Thunderstorms and Rain
1:08 PM 71.6 °F - 71.6 °F 100% 30.13 in 2.0 mi SSE 9.2 mph - 0.02 in Rain , Thunderstorm Heavy Rain
1:19 PM 75.2 °F - 73.4 °F 94% 30.12 in 6.0 mi East 6.9 mph - 0.03 in Rain , Thunderstorm Light Thunderstorms and Rain
1:37 PM 75.2 °F - 73.4 °F 94% 30.12 in 6.0 mi SE 3.5 mph - 0.04 in   Scattered Clouds
1:45 PM 77.0 °F - 73.4 °F 89% 30.12 in 6.0 mi SE 6.9 mph - 0.04 in Thunderstorm Partly Cloudy
1:53 PM 77.0 °F - 73.9 °F 90% 30.09 in 7.0 mi SE 9.2 mph - 0.04 in Thunderstorm Partly Cloudy
2:14 PM 78.8 °F - 73.4 °F 83% 30.10 in 8.0 mi ESE 8.1 mph - 0.01 in Rain Light Rain
2:53 PM 80.1 °F 84.2 °F 73.0 °F 79% 30.06 in 10.0 mi SE 12.7 mph - 0.03 in   Clear
3:53 PM 81.0 °F 84.9 °F 71.1 °F 72% 30.03 in 10.0 mi ESE 8.1 mph - 0.02 in   Clear
4:53 PM 81.0 °F 85.2 °F 72.0 °F 74% 30.03 in 10.0 mi SE 11.5 mph - 0.02 in   Partly Cloudy
5:53 PM 80.1 °F 83.6 °F 71.1 °F 74% 30.04 in 7.0 mi ESE 9.2 mph - 0.03 in   Clear
6:53 PM 78.1 °F - 71.1 °F 79% 30.05 in 10.0 mi SSE 9.2 mph - 0.02 in   Partly Cloudy
7:05 PM 75.2 °F - 69.8 °F 83% 30.10 in 10.0 mi SW 24.2 mph 35.7 mph 0.01 in Thunderstorm Scattered Clouds
7:21 PM 69.8 °F - 64.4 °F 83% 30.11 in 10.0 mi SW 19.6 mph 29.9 mph 0.01 in Thunderstorm Mostly Cloudy
7:28 PM 68.0 °F - 64.4 °F 88% 30.11 in 10.0 mi SW 12.7 mph 28.8 mph 0.01 in Thunderstorm Overcast
7:53 PM 66.9 °F - 66.0 °F 97% 30.10 in 7.0 mi WSW 10.4 mph - 0.02 in Rain , Thunderstorm Light Thunderstorms and Rain
8:44 PM 66.2 °F - 66.2 °F 100% 30.10 in 7.0 mi SW 15.0 mph 23.0 mph N/A Rain Rain
8:53 PM 66.9 °F - 66.0 °F 97% 30.08 in 7.0 mi SW 12.7 mph 23.0 mph N/A Rain , Thunderstorm Rain
9:17 PM 66.2 °F - 66.2 °F 100% 30.10 in 10.0 mi SSW 9.2 mph - 0.01 in Rain Light Rain
9:53 PM 66.9 °F - 66.0 °F 97% 30.09 in 10.0 mi SW 8.1 mph - 0.01 in Rain Light Rain
10:53 PM 66.9 °F - 66.0 °F 97% 30.14 in 10.0 mi SSE 8.1 mph - 0.01 in   Mostly Cloudy
11:53 PM 66.9 °F - 64.9 °F 93% 30.14 in 10.0 mi South 6.9 mph - 0.01 in   Mostly Cloudy